Home > Weather > Miri > Past weeks

Flag for Malaysia Weather for the Past 2 Weeks in Miri, Malaysia

Now
81 °F

Partly cloudy.


Feels Like: 87 °F
Forecast: 78 / 88 °F
Wind: 6 mph from Northeast

Location: Miri Airport

Current Time: Feb 9, 2016 at 10:35:06 PM

Latest Report: Feb 9, 2016 at 9:00 PM


Visibility: N/A

Pressure: 29.83 "Hg

Humidity: 89%

Dew point: 77 °F

Location of MiriLocation

Historic Weather in Miri — Graph

°F

Miri Temperature Yesterday

Maximum temperature yesterday: 86 °F (at 1:00 PM)
Minimum temperature yesterday: 77 °F (at 3:00 AM)
Average temperature yesterday: 81 °F

High & Low Weather Summary for the Past Weeks

 TemperatureHumidityPressure
High91 °F (Jan 26, 2:00 PM)100% (Jan 27, 3:00 AM)29.92 "Hg (Jan 27, 3:00 AM)
Low75 °F (Jan 27, 3:00 AM)59% (Jan 26, 2:00 PM)29.71 "Hg (Jan 31, 4:00 PM)
Average82 °F85%29.81 "Hg
* Reported Jan 25 9:00 PM — Feb 9 9:00 PM, Miri, Weather by CustomWeather, © 2016

Note: Actual official high and low records may vary slightly from our data, if they occured in-between our weather recording intervals... More about our weather records

Advertising

Miri Weather History for the Previous 24 Hours

 ConditionsComfort  
Time TempWeatherWind HumidityBarometerVisibility
9:00 PM
Tue, Feb 9
81 °FPartly cloudy.6 mph89%29.83 "HgN/A
8:00 PM81 °FPartly cloudy.7 mph89%29.80 "HgN/A
7:00 PM81 °FPartly cloudy.6 mph89%29.77 "HgN/A
6:00 PM82 °FBroken clouds.8 mph84%29.77 "HgN/A
5:00 PM84 °FPartly sunny.10 mph79%29.74 "HgN/A
4:00 PM84 °FThunderstorms. Partly sunny.7 mph79%29.74 "Hg4 mi
3:00 PM88 °FScattered showers. Broken clouds.10 mph75%29.74 "Hg4 mi
2:00 PM82 °FScattered showers. Broken clouds.9 mph89%29.77 "Hg4 mi
1:00 PM88 °FBroken clouds.12 mph75%29.80 "HgN/A
12:00 PM88 °FBroken clouds.7 mph75%29.83 "HgN/A
11:00 AM88 °FBroken clouds.6 mph70%29.83 "HgN/A
10:00 AM86 °FBroken clouds.7 mph79%29.86 "HgN/A
9:00 AM82 °FBroken clouds.8 mph89%29.86 "Hg6 mi
8:00 AM81 °FBroken clouds.5 mph94%29.83 "Hg4 mi
7:00 AM79 °FBroken clouds.1 mph94%29.80 "HgN/A
6:00 AM79 °FPartly cloudy.3 mph94%29.77 "HgN/A
5:00 AM79 °FLight rain. Partly cloudy.2 mph100%29.77 "Hg4 mi
4:00 AM79 °FPartly cloudy.3 mph94%29.77 "HgN/A
3:00 AM81 °FPartly cloudy.5 mph89%29.77 "HgN/A
2:00 AM81 °FPartly cloudy.5 mph89%29.77 "Hg1 mi
1:00 AM81 °FPartly cloudy.5 mph89%29.80 "HgN/A
12:00 AM81 °FPartly cloudy.6 mph89%29.83 "HgN/A
11:00 PM
Mon, Feb 8
81 °FPartly cloudy.6 mph94%29.83 "HgN/A
10:00 PM81 °FPartly cloudy.6 mph89%29.83 "HgN/A
Weather by CustomWeather, © 2016

See weather overviewHow to use our weather pages